This is the latest recevied weather packets stored in our database for station/object SP2ARK-10. If no packets are shown the sender has not sent any weather packets the latest 10 day(s).
| Time | Temp. | Humidity | Pressure | Rain* | Wind** | Luminosity | Snow |
|---|---|---|---|---|---|---|---|
| 1777837809 | 23.33° C | 54% | 1017.8 hPa | - | - | - | - |
| 1777836908 | 23.89° C | 54% | 1017.8 hPa | - | - | - | - |
| 1777836008 | 23.89° C | 53% | 1017.8 hPa | - | - | - | - |
| 1777835107 | 23.89° C | 52% | 1017.7 hPa | - | - | - | - |
| 1777834207 | 23.89° C | 52% | 1017.8 hPa | - | - | - | - |
| 1777833307 | 24.44° C | 52% | 1017.6 hPa | - | - | - | - |
| 1777832406 | 25° C | 51% | 1017.5 hPa | - | - | - | - |
| 1777831506 | 25° C | 51% | 1017.4 hPa | - | - | - | - |
| 1777830605 | 25.56° C | 50% | 1017.3 hPa | - | - | - | - |
| 1777829704 | 26.11° C | 50% | 1017.4 hPa | - | - | - | - |
| 1777828803 | 26.67° C | 50% | 1017.4 hPa | - | - | - | - |
| 1777827902 | 26.67° C | 49% | 1017.2 hPa | - | - | - | - |
| 1777827001 | 27.78° C | 48% | 1017.3 hPa | - | - | - | - |
| 1777826101 | 28.33° C | 46% | 1017.4 hPa | - | - | - | - |
| 1777825200 | 28.33° C | 46% | 1017.3 hPa | - | - | - | - |
| 1777824299 | 28.33° C | 46% | 1017.4 hPa | - | - | - | - |
| 1777823398 | 28.33° C | 46% | 1017.4 hPa | - | - | - | - |
| 1777822498 | 28.33° C | 45% | 1017.5 hPa | - | - | - | - |
| 1777821597 | 28.33° C | 44% | 1017.5 hPa | - | - | - | - |
| 1777820696 | 28.33° C | 44% | 1017.7 hPa | - | - | - | - |
| 1777819796 | 28.33° C | 45% | 1017.9 hPa | - | - | - | - |
| 1777818895 | 28.89° C | 45% | 1018.2 hPa | - | - | - | - |
| 1777817994 | 28.89° C | 44% | 1018.2 hPa | - | - | - | - |
| 1777817094 | 28.89° C | 45% | 1018.4 hPa | - | - | - | - |
| 1777816193 | 28.89° C | 45% | 1018.5 hPa | - | - | - | - |
* Rain since midnight (hover to see other rain measurements)
** Current wind speed in m/s (hover to see current wind gust speed)